Regional Weather Roundup
Issued by NWS Sioux Falls, SD

Home | Current Version | Previous Version | Graphics & Text | Print | Product List | Glossary On
Versions: 1 2 3 4 5 6 7 8 9 10 11 12 13 14 15 16 17 18 19 20 21 22 23 24 25 26 27 28 29 30 31 32 33 34 35 36 37 38 39 40 41 42 43 44 45 46 47 48 49 50
000
ASUS43 KFSD 270410
RWRFSD

WEATHER ROUNDUP FOR SE SOUTH DAKOTA/SW MINNESOTA/NW IOWA
NATIONAL WEATHER SERVICE SIOUX FALLS SD
1100 PM CDT TUE AUG 26 2014

NOTE: "FAIR" INDICATES FEW OR NO CLOUDS BELOW 12,000 FEET WITH NO
SIGNIFICANT WEATHER AND OR OBSTRUCTIONS TO VISIBILITY.


SDZ038>040-050-052>070-270500-
SOUTHEAST SOUTH DAKOTA

CITY           SKY/WX    TMP DP  RH WIND       PRES   REMARKS
CHAMBERLAIN    CLOUDY    61  57  87 E6        30.14S
HURON          CLEAR     59  57  93 E6        30.16R
MADISON        CLOUDY    63  59  88 SE5       30.19R
MITCHELL       PTCLDY    62  59  90 SE5       30.16R
SIOUX FALLS    MOCLDY    65  56  72 SE6       30.18R
WINNER         FAIR      66  58  75 E9        30.12S
YANKTON        PTCLDY    63  59  88 NE6       30.16R
$$

MNZ071-072-080-081-089-090-097-098-270500-
SOUTHWEST MINNESOTA

CITY           SKY/WX    TMP DP  RH WIND       PRES   REMARKS
FAIRMONT       PTCLDY    57  54  88 CALM      30.17S
JACKSON        MOCLDY    59  54  82 E5        30.19S
LUVERNE        PTCLDY    63  57  82 CALM      30.19R
MARSHALL       CLOUDY    63  55  77 CALM      30.18R
MONTEVIDEO     MOCLDY    61  57  88 CALM      30.19R
PIPESTONE      CLOUDY    63  55  77 SE3       30.20R
REDWOOD FALLS  CLOUDY    64  57  78 N5        30.18R
TRACY          CLOUDY    64  59  81 CALM      30.20R
WINDOM         PTCLDY    61  55  82 CALM      30.19R
WORTHINGTON    MOCLDY    59  57  94 SE3       30.20R
$$

IAZ001>003-012>014-020>022-031-032-NEZ013-014-SDZ071-270500-
NORTHWEST IOWA

CITY           SKY/WX    TMP DP  RH WIND       PRES   REMARKS
CHEROKEE       CLEAR     61  60  98 CALM      30.16F
DENISON        MOCLDY    66  66 100 NE7       30.14S
ESTHERVILLE    CLEAR     59  56  89 N3        30.18S
LE MARS        CLEAR     64  61  88 E6        30.16S
ORANGE CITY    CLEAR     64  59  82 E3        30.17S
SHELDON        CLEAR     59  59 100 E5        30.16F
SIOUX CITY     PTCLDY    66  61  84 E6        30.15S
SPENCER        CLEAR     60  58  92 E5        30.18S
STORM LAKE     PTCLDY    63  63 100 E6        30.18S
$$

ABBREVIATIONS USED IN REMARKS
   TC - TEMPERATURE IN CELSIUS
  WCI - WIND CHILL INDEX
   HX - HEAT INDEX
  VSB - VISIBILITY



USA.gov is the U.S. government's official web portal to all federal, state and local government web resources and services.